Time,TemperatureF,DewpointF,PressureIn,WindDirection,WindDirectionDegrees,WindSpeedMPH,WindSpeedGustMPH,Humidity,HourlyPrecipIn,Conditions,Clouds,dailyrainin,SoftwareType,DateUTC
2013-09-09 00:01:00,67.9,63.9,29.99,ESE,122,3.0,5.0,87,0.00,,,0.00,Wunderground v.1.15,2013-09-09 04:01:00,
2013-09-09 00:02:00,67.9,63.9,29.99,East,94,3.0,6.0,87,0.00,,,0.00,Wunderground v.1.15,2013-09-09 04:02:00,
2013-09-09 00:03:00,67.9,63.9,29.99,NNE,14,3.0,6.0,87,0.00,,,0.00,Wunderground v.1.15,2013-09-09 04:03:00,
2013-09-09 00:04:00,67.9,63.9,29.99,NNE,30,3.0,6.0,87,0.00,,,0.00,Wunderground v.1.15,2013-09-09 04:04:00,
2013-09-09 00:10:00,67.8,63.8,29.99,SE,127,3.0,8.0,87,0.00,,,0.00,Wunderground v.1.15,2013-09-09 04:10:00,
2013-09-09 00:16:00,67.8,63.8,30.00,WSW,246,3.0,5.0,87,0.00,,,0.00,Wunderground v.1.15,2013-09-09 04:16:00,
2013-09-09 00:19:00,67.8,63.8,30.00,SW,226,3.0,5.0,87,0.00,,,0.00,Wunderground v.1.15,2013-09-09 04:19:00,
2013-09-09 00:25:00,67.7,63.7,30.00,WSW,250,3.0,5.0,87,0.00,,,0.00,Wunderground v.1.15,2013-09-09 04:25:00,
2013-09-09 00:31:00,67.7,63.7,30.00,SE,127,3.0,5.0,87,0.00,,,0.00,Wunderground v.1.15,2013-09-09 04:31:00,
2013-09-09 00:37:00,67.7,63.7,30.00,ENE,75,3.0,5.0,87,0.00,,,0.00,Wunderground v.1.15,2013-09-09 04:37:00,
2013-09-09 00:43:00,67.6,63.6,30.00,SSE,152,2.0,5.0,87,0.00,,,0.00,Wunderground v.1.15,2013-09-09 04:43:00,
2013-09-09 00:49:00,67.5,63.5,29.99,SSW,197,2.0,5.0,87,0.00,,,0.00,Wunderground v.1.15,2013-09-09 04:49:00,
2013-09-09 00:55:00,67.4,63.7,30.00,SE,143,2.0,6.0,88,0.00,,,0.00,Wunderground v.1.15,2013-09-09 04:55:00,
2013-09-09 01:01:00,67.3,63.6,30.00,SSE,160,3.0,3.0,88,0.00,,,0.00,Wunderground v.1.15,2013-09-09 05:01:00,
2013-09-09 01:07:00,67.2,63.5,29.99,ESE,114,3.0,5.0,88,0.00,,,0.00,Wunderground v.1.15,2013-09-09 05:07:00,
2013-09-09 01:13:00,67.0,63.3,29.99,East,94,3.0,7.0,88,0.00,,,0.00,Wunderground v.1.15,2013-09-09 05:13:00,
2013-09-09 01:19:00,66.8,63.1,29.99,ESE,109,2.0,7.0,88,0.00,,,0.00,Wunderground v.1.15,2013-09-09 05:19:00,
2013-09-09 01:25:00,66.6,63.3,29.99,SE,129,3.0,6.0,89,0.00,,,0.00,Wunderground v.1.15,2013-09-09 05:25:00,
2013-09-09 01:31:00,66.5,63.2,30.00,ESE,115,3.0,3.0,89,0.00,,,0.00,Wunderground v.1.15,2013-09-09 05:31:00,
2013-09-09 01:37:00,66.4,63.1,30.00,ENE,73,2.0,5.0,89,0.00,,,0.00,Wunderground v.1.15,2013-09-09 05:37:00,
2013-09-09 01:43:00,66.4,63.1,30.00,SE,134,2.0,5.0,89,0.00,,,0.00,Wunderground v.1.15,2013-09-09 05:43:00,
2013-09-09 01:49:00,66.4,63.1,30.00,East,101,2.0,5.0,89,0.00,,,0.00,Wunderground v.1.15,2013-09-09 05:49:00,
2013-09-09 01:54:00,66.5,63.2,30.00,NE,51,3.0,6.0,89,0.00,,,0.00,Wunderground v.1.15,2013-09-09 05:54:00,
2013-09-09 02:01:00,66.5,63.2,30.00,NNW,333,3.0,3.0,89,0.00,,,0.00,Wunderground v.1.15,2013-09-09 06:01:00,
2013-09-09 02:07:00,66.5,63.2,30.00,SSE,158,3.0,5.0,89,0.00,,,0.00,Wunderground v.1.15,2013-09-09 06:07:00,
2013-09-09 02:13:00,66.5,63.2,30.00,East,82,2.0,5.0,89,0.00,,,0.00,Wunderground v.1.15,2013-09-09 06:13:00,
2013-09-09 02:19:00,66.6,63.3,30.00,NNW,333,2.0,5.0,89,0.00,,,0.00,Wunderground v.1.15,2013-09-09 06:19:00,
2013-09-09 02:25:00,66.6,63.3,30.00,NE,51,2.0,5.0,89,0.00,,,0.00,Wunderground v.1.15,2013-09-09 06:25:00,
2013-09-09 02:31:00,66.5,63.2,30.00,South,174,2.0,2.0,89,0.00,,,0.00,Wunderground v.1.15,2013-09-09 06:31:00,
2013-09-09 02:37:00,66.6,63.3,30.00,SE,136,2.0,6.0,89,0.00,,,0.00,Wunderground v.1.15,2013-09-09 06:37:00,
2013-09-09 02:42:00,66.5,63.2,30.00,SE,131,2.0,5.0,89,0.00,,,0.00,Wunderground v.1.15,2013-09-09 06:42:00,
2013-09-09 02:48:00,66.4,63.1,29.99,NNE,22,2.0,6.0,89,0.00,,,0.00,Wunderground v.1.15,2013-09-09 06:48:00,
2013-09-09 02:54:00,66.4,63.1,29.99,ESE,120,2.0,5.0,89,0.00,,,0.00,Wunderground v.1.15,2013-09-09 06:54:00,
2013-09-09 03:01:00,66.3,63.0,29.99,South,176,2.0,5.0,89,0.00,,,0.00,Wunderground v.1.15,2013-09-09 07:01:00,
2013-09-09 03:07:00,66.3,63.0,29.99,ESE,105,2.0,5.0,89,0.00,,,0.00,Wunderground v.1.15,2013-09-09 07:07:00,
2013-09-09 03:12:00,66.2,62.9,29.99,SE,128,2.0,5.0,89,0.00,,,0.00,Wunderground v.1.15,2013-09-09 07:12:00,
2013-09-09 03:18:00,66.0,63.0,29.99,SSE,150,2.0,5.0,90,0.00,,,0.00,Wunderground v.1.15,2013-09-09 07:18:00,
2013-09-09 03:24:00,65.8,62.8,29.99,SE,124,1.0,5.0,90,0.00,,,0.00,Wunderground v.1.15,2013-09-09 07:24:00,
2013-09-09 03:30:00,65.6,62.6,29.99,ESE,110,2.0,5.0,90,0.00,,,0.00,Wunderground v.1.15,2013-09-09 07:30:00,
2013-09-09 03:36:00,65.5,62.8,29.99,North,351,2.0,5.0,91,0.00,,,0.00,Wunderground v.1.15,2013-09-09 07:36:00,
2013-09-09 03:42:00,65.5,62.8,29.99,East,79,2.0,5.0,91,0.00,,,0.00,Wunderground v.1.15,2013-09-09 07:42:00,
2013-09-09 03:48:00,65.4,62.7,29.99,NNE,22,1.0,5.0,91,0.00,,,0.00,Wunderground v.1.15,2013-09-09 07:48:00,
2013-09-09 03:54:00,65.3,62.6,29.99,East,94,1.0,5.0,91,0.00,,,0.00,Wunderground v.1.15,2013-09-09 07:54:00,
2013-09-09 04:01:00,65.2,62.5,29.98,East,79,1.0,5.0,91,0.00,,,0.00,Wunderground v.1.15,2013-09-09 08:01:00,
2013-09-09 04:07:00,65.1,62.7,29.99,East,92,1.0,5.0,92,0.00,,,0.00,Wunderground v.1.15,2013-09-09 08:07:00,
2013-09-09 04:13:00,65.1,62.7,29.99,ESE,107,1.0,5.0,92,0.00,,,0.00,Wunderground v.1.15,2013-09-09 08:13:00,
2013-09-09 04:18:00,65.0,62.6,29.99,ESE,103,1.0,5.0,92,0.00,,,0.00,Wunderground v.1.15,2013-09-09 08:18:00,
2013-09-09 04:24:00,64.9,62.5,29.99,SE,134,1.0,5.0,92,0.00,,,0.00,Wunderground v.1.15,2013-09-09 08:24:00,
2013-09-09 04:30:00,64.7,62.3,29.99,SE,125,1.0,5.0,92,0.00,,,0.00,Wunderground v.1.15,2013-09-09 08:30:00,
2013-09-09 04:36:00,64.6,62.2,29.99,East,83,0.0,5.0,92,0.00,,,0.00,Wunderground v.1.15,2013-09-09 08:36:00,
2013-09-09 04:42:00,64.5,62.4,29.98,ESE,110,0.0,5.0,93,0.00,,,0.00,Wunderground v.1.15,2013-09-09 08:42:00,
2013-09-09 04:48:00,64.4,62.3,29.98,East,90,0.0,5.0,93,0.00,,,0.00,Wunderground v.1.15,2013-09-09 08:48:00,
2013-09-09 04:54:00,64.3,62.2,29.98,ENE,66,0.0,5.0,93,0.00,,,0.00,Wunderground v.1.15,2013-09-09 08:54:00,
2013-09-09 05:01:00,64.2,62.1,29.98,ESE,120,0.0,5.0,93,0.00,,,0.00,Wunderground v.1.15,2013-09-09 09:01:00,
2013-09-09 05:07:00,64.0,61.9,29.97,ESE,117,1.0,5.0,93,0.00,,,0.00,Wunderground v.1.15,2013-09-09 09:07:00,
2013-09-09 05:12:00,64.0,62.2,29.97,East,100,1.0,5.0,94,0.00,,,0.00,Wunderground v.1.15,2013-09-09 09:12:00,
2013-09-09 05:18:00,63.9,62.1,29.98,East,98,0.0,5.0,94,0.00,,,0.00,Wunderground v.1.15,2013-09-09 09:18:00,
2013-09-09 05:24:00,63.9,62.1,29.97,East,99,0.0,5.0,94,0.00,,,0.00,Wunderground v.1.15,2013-09-09 09:24:00,
2013-09-09 05:30:00,63.8,62.0,29.97,ESE,108,0.0,5.0,94,0.00,,,0.00,Wunderground v.1.15,2013-09-09 09:30:00,
2013-09-09 05:36:00,63.7,61.9,29.97,East,101,0.0,5.0,94,0.00,,,0.00,Wunderground v.1.15,2013-09-09 09:36:00,
2013-09-09 05:42:00,63.6,61.8,29.97,East,101,0.0,5.0,94,0.00,,,0.00,Wunderground v.1.15,2013-09-09 09:42:00,
2013-09-09 05:48:00,63.5,61.7,29.97,East,100,0.0,5.0,94,0.00,,,0.00,Wunderground v.1.15,2013-09-09 09:48:00,
2013-09-09 05:54:00,63.4,61.9,29.97,SE,124,0.0,5.0,95,0.00,,,0.00,Wunderground v.1.15,2013-09-09 09:54:00,
2013-09-09 06:01:00,63.3,61.8,29.97,SE,128,0.0,5.0,95,0.00,,,0.00,Wunderground v.1.15,2013-09-09 10:01:00,
2013-09-09 06:07:00,63.3,61.8,29.97,ESE,107,0.0,5.0,95,0.00,,,0.00,Wunderground v.1.15,2013-09-09 10:07:00,
2013-09-09 06:12:00,63.2,61.7,29.97,ESE,107,0.0,5.0,95,0.00,,,0.00,Wunderground v.1.15,2013-09-09 10:12:00,
2013-09-09 06:18:00,63.0,61.5,29.97,ESE,107,0.0,5.0,95,0.00,,,0.00,Wunderground v.1.15,2013-09-09 10:18:00,
2013-09-09 06:24:00,63.0,61.5,29.97,ESE,107,0.0,5.0,95,0.00,,,0.00,Wunderground v.1.15,2013-09-09 10:24:00,
2013-09-09 06:30:00,63.0,61.8,29.97,ESE,107,0.0,5.0,96,0.00,,,0.00,Wunderground v.1.15,2013-09-09 10:30:00,
2013-09-09 06:36:00,63.0,61.8,29.97,ESE,108,0.0,5.0,96,0.00,,,0.00,Wunderground v.1.15,2013-09-09 10:36:00,
2013-09-09 06:42:00,63.0,61.8,29.97,ESE,107,0.0,5.0,96,0.00,,,0.00,Wunderground v.1.15,2013-09-09 10:42:00,
2013-09-09 06:47:00,63.1,61.9,29.97,SSE,160,0.0,5.0,96,0.00,,,0.00,Wunderground v.1.15,2013-09-09 10:47:00,
2013-09-09 06:53:00,63.2,62.0,29.97,SSE,160,0.0,5.0,96,0.00,,,0.00,Wunderground v.1.15,2013-09-09 10:53:00,
2013-09-09 06:59:00,63.2,62.0,29.98,SSE,150,0.0,5.0,96,0.00,,,0.00,Wunderground v.1.15,2013-09-09 10:59:00,
2013-09-09 07:05:00,63.4,62.2,29.98,SE,135,0.0,5.0,96,0.00,,,0.00,Wunderground v.1.15,2013-09-09 11:05:00,
2013-09-09 07:11:00,63.5,62.3,29.97,SE,129,1.0,1.0,96,0.00,,,0.00,Wunderground v.1.15,2013-09-09 11:11:00,
2013-09-09 07:17:00,63.6,62.4,29.97,SE,145,1.0,5.0,96,0.00,,,0.00,Wunderground v.1.15,2013-09-09 11:17:00,
2013-09-09 07:23:00,63.7,62.5,29.98,SE,128,0.0,5.0,96,0.00,,,0.00,Wunderground v.1.15,2013-09-09 11:23:00,
2013-09-09 07:28:00,63.7,62.5,29.98,South,172,0.0,5.0,96,0.00,,,0.00,Wunderground v.1.15,2013-09-09 11:28:00,
2013-09-09 07:34:00,63.9,62.7,29.98,SSW,201,1.0,5.0,96,0.00,,,0.00,Wunderground v.1.15,2013-09-09 11:34:00,
2013-09-09 07:40:00,63.9,62.7,29.98,SSW,194,1.0,5.0,96,0.00,,,0.00,Wunderground v.1.15,2013-09-09 11:40:00,
2013-09-09 07:46:00,64.0,62.8,29.98,SSE,165,1.0,5.0,96,0.00,,,0.00,Wunderground v.1.15,2013-09-09 11:46:00,
2013-09-09 07:52:00,64.2,63.0,29.98,SE,135,1.0,5.0,96,0.00,,,0.00,Wunderground v.1.15,2013-09-09 11:52:00,
2013-09-09 07:58:00,64.4,63.2,29.98,SSE,159,1.0,5.0,96,0.00,,,0.00,Wunderground v.1.15,2013-09-09 11:58:00,
2013-09-09 08:04:00,64.5,63.3,29.98,SSE,150,2.0,5.0,96,0.00,,,0.00,Wunderground v.1.15,2013-09-09 12:04:00,
2013-09-09 08:09:00,64.7,63.5,29.98,SSE,155,2.0,5.0,96,0.00,,,0.00,Wunderground v.1.15,2013-09-09 12:09:00,
2013-09-09 08:15:00,64.9,63.7,29.98,SE,136,1.0,5.0,96,0.00,,,0.00,Wunderground v.1.15,2013-09-09 12:15:00,
2013-09-09 08:21:00,65.0,63.8,29.98,SE,143,1.0,5.0,96,0.00,,,0.00,Wunderground v.1.15,2013-09-09 12:21:00,
2013-09-09 08:27:00,65.2,64.0,29.98,SE,136,1.0,5.0,96,0.00,,,0.00,Wunderground v.1.15,2013-09-09 12:27:00,
2013-09-09 08:33:00,65.4,64.2,29.98,ESE,121,1.0,5.0,96,0.00,,,0.00,Wunderground v.1.15,2013-09-09 12:33:00,
2013-09-09 08:39:00,65.7,64.5,29.98,ESE,122,1.0,5.0,96,0.00,,,0.00,Wunderground v.1.15,2013-09-09 12:39:00,
2013-09-09 08:45:00,66.0,64.5,29.98,SE,145,1.0,5.0,95,0.00,,,0.00,Wunderground v.1.15,2013-09-09 12:45:00,
2013-09-09 08:51:00,66.3,64.8,29.99,SE,145,1.0,5.0,95,0.00,,,0.00,Wunderground v.1.15,2013-09-09 12:51:00,
2013-09-09 08:57:00,66.6,65.1,29.98,SSE,148,1.0,5.0,95,0.00,,,0.00,Wunderground v.1.15,2013-09-09 12:57:00,
2013-09-09 09:02:00,66.9,65.4,29.98,SSW,210,1.0,5.0,95,0.00,,,0.00,Wunderground v.1.15,2013-09-09 13:02:00,
2013-09-09 09:08:00,67.2,65.4,29.99,SSE,153,2.0,5.0,94,0.00,,,0.00,Wunderground v.1.15,2013-09-09 13:08:00,
2013-09-09 09:14:00,67.7,65.9,29.99,South,179,2.0,5.0,94,0.00,,,0.00,Wunderground v.1.15,2013-09-09 13:14:00,
2013-09-09 09:20:00,68.2,66.4,29.99,SSW,198,2.0,5.0,94,0.00,,,0.00,Wunderground v.1.15,2013-09-09 13:20:00,
2013-09-09 09:26:00,68.8,66.7,29.99,South,173,2.0,5.0,93,0.00,,,0.00,Wunderground v.1.15,2013-09-09 13:26:00,
2013-09-09 09:32:00,69.3,66.9,29.99,South,183,3.0,5.0,92,0.00,,,0.00,Wunderground v.1.15,2013-09-09 13:32:00,
2013-09-09 09:38:00,69.7,67.0,29.99,SSE,165,3.0,5.0,91,0.00,,,0.00,Wunderground v.1.15,2013-09-09 13:38:00,
2013-09-09 09:44:00,70.0,67.3,29.99,South,191,4.0,6.0,91,0.00,,,0.00,Wunderground v.1.15,2013-09-09 13:44:00,
2013-09-09 09:49:00,70.3,67.5,29.99,SSW,197,3.0,6.0,91,0.00,,,0.00,Wunderground v.1.15,2013-09-09 13:49:00,
2013-09-09 09:55:00,70.6,67.5,29.99,South,188,3.0,5.0,90,0.00,,,0.00,Wunderground v.1.15,2013-09-09 13:55:00,
2013-09-09 10:01:00,71.0,67.6,29.99,SE,140,3.0,3.0,89,0.00,,,0.00,Wunderground v.1.15,2013-09-09 14:01:00,
2013-09-09 10:07:00,71.4,68.0,29.99,SSE,158,3.0,5.0,89,0.00,,,0.00,Wunderground v.1.15,2013-09-09 14:07:00,
2013-09-09 10:13:00,71.7,68.3,30.00,SSE,153,2.0,5.0,89,0.00,,,0.00,Wunderground v.1.15,2013-09-09 14:13:00,
2013-09-09 10:19:00,72.1,68.3,30.00,SSW,194,2.0,5.0,88,0.00,,,0.00,Wunderground v.1.15,2013-09-09 14:19:00,
2013-09-09 10:25:00,72.6,68.8,30.00,SE,133,2.0,5.0,88,0.00,,,0.00,Wunderground v.1.15,2013-09-09 14:25:00,
2013-09-09 10:30:00,73.2,68.8,30.00,SSE,152,2.0,5.0,86,0.00,,,0.00,Wunderground v.1.15,2013-09-09 14:30:00,
2013-09-09 10:36:00,73.8,69.0,30.00,SSE,159,2.0,5.0,85,0.00,,,0.00,Wunderground v.1.15,2013-09-09 14:36:00,
2013-09-09 10:42:00,74.2,69.4,29.99,South,176,3.0,4.0,85,0.00,,,0.00,Wunderground v.1.15,2013-09-09 14:42:00,
2013-09-09 10:48:00,74.7,69.2,29.99,SE,141,3.0,7.0,83,0.00,,,0.00,Wunderground v.1.15,2013-09-09 14:48:00,
2013-09-09 10:54:00,75.1,69.6,29.99,SSE,164,4.0,6.0,83,0.00,,,0.00,Wunderground v.1.15,2013-09-09 14:54:00,
2013-09-09 11:01:00,75.8,69.6,29.99,SSW,197,4.0,5.0,81,0.00,,,0.00,Wunderground v.1.15,2013-09-09 15:01:00,
2013-09-09 11:07:00,76.4,69.4,29.99,SE,140,5.0,7.0,79,0.00,,,0.00,Wunderground v.1.15,2013-09-09 15:07:00,
2013-09-09 11:13:00,76.9,69.9,29.99,SE,138,5.0,5.0,79,0.00,,,0.00,Wunderground v.1.15,2013-09-09 15:13:00,
2013-09-09 11:19:00,77.2,69.8,29.98,SE,131,4.0,9.0,78,0.00,,,0.00,Wunderground v.1.15,2013-09-09 15:19:00,
2013-09-09 11:24:00,77.4,70.0,29.99,SSW,210,5.0,7.0,78,0.00,,,0.00,Wunderground v.1.15,2013-09-09 15:24:00,
2013-09-09 11:30:00,77.6,69.8,29.98,South,186,6.0,7.0,77,0.00,,,0.00,Wunderground v.1.15,2013-09-09 15:30:00,
2013-09-09 11:36:00,77.4,69.6,29.98,SSW,207,6.0,7.0,77,0.00,,,0.00,Wunderground v.1.15,2013-09-09 15:36:00,
2013-09-09 11:42:00,77.8,69.6,29.98,SE,127,5.0,6.0,76,0.00,,,0.00,Wunderground v.1.15,2013-09-09 15:42:00,
2013-09-09 11:48:00,79.1,70.1,29.98,SSE,158,6.0,11.0,74,0.00,,,0.00,Wunderground v.1.15,2013-09-09 15:48:00,
2013-09-09 11:54:00,79.5,70.5,29.98,South,174,6.0,7.0,74,0.00,,,0.00,Wunderground v.1.15,2013-09-09 15:54:00,
2013-09-09 12:01:00,79.3,70.3,29.99,SSE,165,5.0,10.0,74,0.00,,,0.00,Wunderground v.1.15,2013-09-09 16:01:00,
2013-09-09 12:07:00,79.4,70.4,29.99,SE,136,6.0,10.0,74,0.00,,,0.00,Wunderground v.1.15,2013-09-09 16:07:00,
2013-09-09 12:12:00,79.7,70.7,29.98,South,180,6.0,6.0,74,0.00,,,0.00,Wunderground v.1.15,2013-09-09 16:12:00,
2013-09-09 12:18:00,80.8,70.5,29.98,SE,132,5.0,8.0,71,0.00,,,0.00,Wunderground v.1.15,2013-09-09 16:18:00,
2013-09-09 12:24:00,81.4,71.1,29.98,SSE,156,6.0,10.0,71,0.00,,,0.00,Wunderground v.1.15,2013-09-09 16:24:00,
2013-09-09 12:30:00,82.1,71.8,29.97,SSE,159,6.0,10.0,71,0.00,,,0.00,Wunderground v.1.15,2013-09-09 16:30:00,
2013-09-09 12:36:00,83.0,71.8,29.97,SSW,198,6.0,13.0,69,0.00,,,0.00,Wunderground v.1.15,2013-09-09 16:36:00,
2013-09-09 12:42:00,83.9,72.2,29.97,WSW,243,6.0,7.0,68,0.00,,,0.00,Wunderground v.1.15,2013-09-09 16:42:00,
2013-09-09 12:48:00,84.3,72.1,29.97,SSE,155,8.0,13.0,67,0.00,,,0.00,Wunderground v.1.15,2013-09-09 16:48:00,
2013-09-09 12:54:00,85.0,72.4,29.97,SSW,194,7.0,8.0,66,0.00,,,0.00,Wunderground v.1.15,2013-09-09 16:54:00,
2013-09-09 12:59:00,85.4,72.3,29.96,SW,236,7.0,12.0,65,0.00,,,0.00,Wunderground v.1.15,2013-09-09 16:59:00,
2013-09-09 13:05:00,85.5,72.4,29.96,SSE,147,8.0,8.0,65,0.00,,,0.00,Wunderground v.1.15,2013-09-09 17:05:00,
2013-09-09 13:11:00,85.7,72.1,29.95,SW,225,7.0,7.0,64,0.00,,,0.00,Wunderground v.1.15,2013-09-09 17:11:00,
2013-09-09 13:16:00,86.0,71.9,29.95,South,188,7.0,7.0,63,0.00,,,0.00,Wunderground v.1.15,2013-09-09 17:16:00,
2013-09-09 13:22:00,86.1,72.0,29.95,SSE,166,8.0,9.0,63,0.00,,,0.00,Wunderground v.1.15,2013-09-09 17:22:00,
2013-09-09 13:28:00,86.2,72.1,29.95,South,179,9.0,11.0,63,0.00,,,0.00,Wunderground v.1.15,2013-09-09 17:28:00,
2013-09-09 13:34:00,86.5,72.4,29.94,SSW,198,8.0,11.0,63,0.00,,,0.00,Wunderground v.1.15,2013-09-09 17:34:00,
2013-09-09 13:40:00,86.7,71.6,29.94,SSW,212,8.0,13.0,61,0.00,,,0.00,Wunderground v.1.15,2013-09-09 17:40:00,
2013-09-09 13:46:00,87.1,72.0,29.94,SSW,197,9.0,10.0,61,0.00,,,0.00,Wunderground v.1.15,2013-09-09 17:46:00,
2013-09-09 13:51:00,87.5,71.9,29.94,WSW,239,8.0,8.0,60,0.00,,,0.00,Wunderground v.1.15,2013-09-09 17:51:00,
2013-09-09 13:56:00,87.6,71.5,29.94,SSW,197,8.0,13.0,59,0.00,,,0.00,Wunderground v.1.15,2013-09-09 17:56:00,
2013-09-09 14:01:00,87.8,72.2,29.94,SSW,198,7.0,7.0,60,0.00,,,0.00,Wunderground v.1.15,2013-09-09 18:01:00,
2013-09-09 14:07:00,88.2,71.6,29.94,SSW,205,7.0,10.0,58,0.00,,,0.00,Wunderground v.1.15,2013-09-09 18:07:00,
2013-09-09 14:13:00,88.4,72.2,29.93,SE,129,8.0,8.0,59,0.00,,,0.00,Wunderground v.1.15,2013-09-09 18:13:00,
2013-09-09 14:18:00,88.3,71.6,29.93,SW,214,9.0,9.0,58,0.00,,,0.00,Wunderground v.1.15,2013-09-09 18:18:00,
2013-09-09 14:24:00,88.4,71.2,29.93,SSW,201,10.0,13.0,57,0.00,,,0.00,Wunderground v.1.15,2013-09-09 18:24:00,
2013-09-09 14:30:00,88.4,71.7,29.93,SSW,197,9.0,16.0,58,0.00,,,0.00,Wunderground v.1.15,2013-09-09 18:30:00,
2013-09-09 14:36:00,88.8,72.1,29.93,WSW,239,9.0,13.0,58,0.00,,,0.00,Wunderground v.1.15,2013-09-09 18:36:00,
2013-09-09 14:42:00,88.8,72.1,29.93,SW,229,9.0,9.0,58,0.00,,,0.00,Wunderground v.1.15,2013-09-09 18:42:00,
2013-09-09 14:48:00,89.5,72.8,29.93,SW,228,7.0,11.0,58,0.00,,,0.00,Wunderground v.1.15,2013-09-09 18:48:00,
2013-09-09 14:54:00,89.7,72.4,29.92,SSW,210,8.0,13.0,57,0.00,,,0.00,Wunderground v.1.15,2013-09-09 18:54:00,
2013-09-09 15:01:00,89.7,72.4,29.92,SE,142,9.0,9.0,57,0.00,,,0.00,Wunderground v.1.15,2013-09-09 19:01:00,
2013-09-09 15:07:00,89.6,71.8,29.92,SW,233,8.0,10.0,56,0.00,,,0.00,Wunderground v.1.15,2013-09-09 19:07:00,
2013-09-09 15:13:00,90.1,72.3,29.92,SW,233,7.0,8.0,56,0.00,,,0.00,Wunderground v.1.15,2013-09-09 19:13:00,
2013-09-09 15:19:00,90.0,72.2,29.91,SSW,201,7.0,11.0,56,0.00,,,0.00,Wunderground v.1.15,2013-09-09 19:19:00,
2013-09-09 15:25:00,90.2,72.4,29.91,SSE,163,7.0,10.0,56,0.00,,,0.00,Wunderground v.1.15,2013-09-09 19:25:00,
2013-09-09 15:30:00,90.9,72.5,29.91,SSW,194,7.0,10.0,55,0.00,,,0.00,Wunderground v.1.15,2013-09-09 19:30:00,
2013-09-09 15:36:00,91.0,71.5,29.91,SSW,204,7.0,11.0,53,0.00,,,0.00,Wunderground v.1.15,2013-09-09 19:36:00,
2013-09-09 15:42:00,91.2,71.7,29.91,South,191,7.0,7.0,53,0.00,,,0.00,Wunderground v.1.15,2013-09-09 19:42:00,
2013-09-09 15:48:00,91.2,71.7,29.91,SSW,210,7.0,10.0,53,0.00,,,0.00,Wunderground v.1.15,2013-09-09 19:48:00,
2013-09-09 15:54:00,91.2,72.2,29.90,SW,223,8.0,12.0,54,0.00,,,0.00,Wunderground v.1.15,2013-09-09 19:54:00,
2013-09-09 16:01:00,91.7,72.1,29.90,SSW,198,7.0,7.0,53,0.00,,,0.00,Wunderground v.1.15,2013-09-09 20:01:00,
2013-09-09 16:07:00,91.6,72.0,29.90,South,191,6.0,9.0,53,0.00,,,0.00,Wunderground v.1.15,2013-09-09 20:07:00,
2013-09-09 16:12:00,91.5,72.0,29.89,SW,217,7.0,7.0,53,0.00,,,0.00,Wunderground v.1.15,2013-09-09 20:12:00,
2013-09-09 16:18:00,91.1,72.1,29.89,South,186,7.0,10.0,54,0.00,,,0.00,Wunderground v.1.15,2013-09-09 20:18:00,
2013-09-09 16:24:00,91.5,73.1,29.89,SW,232,6.0,7.0,55,0.00,,,0.00,Wunderground v.1.15,2013-09-09 20:24:00,
2013-09-09 16:30:00,91.8,72.8,29.89,SSW,197,6.0,9.0,54,0.00,,,0.00,Wunderground v.1.15,2013-09-09 20:30:00,
2013-09-09 16:36:00,91.8,72.8,29.89,SSW,204,7.0,8.0,54,0.00,,,0.00,Wunderground v.1.15,2013-09-09 20:36:00,
2013-09-09 16:42:00,91.6,73.1,29.89,SSW,195,7.0,7.0,55,0.00,,,0.00,Wunderground v.1.15,2013-09-09 20:42:00,
2013-09-09 16:48:00,91.8,72.8,29.89,SW,221,7.0,9.0,54,0.00,,,0.00,Wunderground v.1.15,2013-09-09 20:48:00,
2013-09-09 16:54:00,91.5,72.5,29.89,SSW,195,7.0,9.0,54,0.00,,,0.00,Wunderground v.1.15,2013-09-09 20:54:00,
2013-09-09 17:01:00,91.8,72.2,29.89,SW,231,6.0,6.0,53,0.00,,,0.00,Wunderground v.1.15,2013-09-09 21:01:00,
2013-09-09 17:07:00,92.0,73.0,29.89,SW,214,6.0,9.0,54,0.00,,,0.00,Wunderground v.1.15,2013-09-09 21:07:00,
2013-09-09 17:12:00,91.9,72.9,29.88,SSW,205,6.0,7.0,54,0.00,,,0.00,Wunderground v.1.15,2013-09-09 21:12:00,
2013-09-09 17:18:00,92.1,73.1,29.89,SW,236,6.0,9.0,54,0.00,,,0.00,Wunderground v.1.15,2013-09-09 21:18:00,
2013-09-09 17:24:00,92.0,73.0,29.89,SSW,208,5.0,7.0,54,0.00,,,0.00,Wunderground v.1.15,2013-09-09 21:24:00,
2013-09-09 17:30:00,91.8,72.8,29.89,SW,223,6.0,9.0,54,0.00,,,0.00,Wunderground v.1.15,2013-09-09 21:30:00,
2013-09-09 17:36:00,91.5,73.1,29.89,SW,214,7.0,13.0,55,0.00,,,0.00,Wunderground v.1.15,2013-09-09 21:36:00,
2013-09-09 17:42:00,91.9,72.9,29.89,SSW,201,6.0,9.0,54,0.00,,,0.00,Wunderground v.1.15,2013-09-09 21:42:00,
2013-09-09 17:48:00,91.7,72.7,29.88,SSE,159,7.0,9.0,54,0.00,,,0.00,Wunderground v.1.15,2013-09-09 21:48:00,
2013-09-09 17:54:00,91.6,73.1,29.88,SSW,204,7.0,8.0,55,0.00,,,0.00,Wunderground v.1.15,2013-09-09 21:54:00,
2013-09-09 18:01:00,91.3,72.9,29.88,SSW,204,7.0,10.0,55,0.00,,,0.00,Wunderground v.1.15,2013-09-09 22:01:00,
2013-09-09 18:07:00,91.2,73.3,29.88,WSW,252,8.0,11.0,56,0.00,,,0.00,Wunderground v.1.15,2013-09-09 22:07:00,
2013-09-09 18:13:00,91.1,72.7,29.88,SW,217,6.0,8.0,55,0.00,,,0.00,Wunderground v.1.15,2013-09-09 22:13:00,
2013-09-09 18:19:00,90.8,72.4,29.89,SSW,197,7.0,8.0,55,0.00,,,0.00,Wunderground v.1.15,2013-09-09 22:19:00,
2013-09-09 18:24:00,90.6,73.3,29.89,South,170,7.0,7.0,57,0.00,,,0.00,Wunderground v.1.15,2013-09-09 22:24:00,
2013-09-09 18:30:00,90.7,73.4,29.89,SW,228,7.0,10.0,57,0.00,,,0.00,Wunderground v.1.15,2013-09-09 22:30:00,
2013-09-09 18:36:00,90.5,73.2,29.89,SW,224,6.0,7.0,57,0.00,,,0.00,Wunderground v.1.15,2013-09-09 22:36:00,
2013-09-09 18:42:00,90.3,73.0,29.89,SW,226,5.0,6.0,57,0.00,,,0.00,Wunderground v.1.15,2013-09-09 22:42:00,
2013-09-09 18:48:00,90.0,73.2,29.89,SW,215,5.0,7.0,58,0.00,,,0.00,Wunderground v.1.15,2013-09-09 22:48:00,
2013-09-09 18:54:00,89.8,73.0,29.89,SSW,207,5.0,6.0,58,0.00,,,0.00,Wunderground v.1.15,2013-09-09 22:54:00,
2013-09-09 19:01:00,89.4,73.2,29.89,South,188,5.0,5.0,59,0.00,,,0.00,Wunderground v.1.15,2013-09-09 23:01:00,
2013-09-09 19:07:00,89.1,72.9,29.89,SW,216,5.0,10.0,59,0.00,,,0.00,Wunderground v.1.15,2013-09-09 23:07:00,
2013-09-09 19:13:00,88.8,73.1,29.89,SSW,198,5.0,7.0,60,0.00,,,0.00,Wunderground v.1.15,2013-09-09 23:13:00,
2013-09-09 19:19:00,88.5,72.8,29.89,SW,222,5.0,7.0,60,0.00,,,0.00,Wunderground v.1.15,2013-09-09 23:19:00,
2013-09-09 19:24:00,88.2,73.0,29.89,SW,233,6.0,7.0,61,0.00,,,0.00,Wunderground v.1.15,2013-09-09 23:24:00,
2013-09-09 19:30:00,87.8,73.2,29.89,SW,233,5.0,7.0,62,0.00,,,0.00,Wunderground v.1.15,2013-09-09 23:30:00,
2013-09-09 19:36:00,87.5,72.9,29.89,SSE,163,5.0,6.0,62,0.00,,,0.00,Wunderground v.1.15,2013-09-09 23:36:00,
2013-09-09 19:42:00,87.0,72.9,29.89,SSW,198,4.0,5.0,63,0.00,,,0.00,Wunderground v.1.15,2013-09-09 23:42:00,
2013-09-09 19:48:00,86.6,73.0,29.89,SW,229,4.0,9.0,64,0.00,,,0.00,Wunderground v.1.15,2013-09-09 23:48:00,
2013-09-09 19:54:00,86.1,73.0,29.89,SSW,200,4.0,6.0,65,0.00,,,0.00,Wunderground v.1.15,2013-09-09 23:54:00,
2013-09-09 20:01:00,85.5,72.8,29.90,SW,219,3.0,5.0,66,0.00,,,0.00,Wunderground v.1.15,2013-09-10 00:01:00,
2013-09-09 20:07:00,85.0,72.8,29.90,SSW,203,2.0,5.0,67,0.00,,,0.00,Wunderground v.1.15,2013-09-10 00:07:00,
2013-09-09 20:13:00,84.5,72.8,29.90,SSW,201,2.0,5.0,68,0.00,,,0.00,Wunderground v.1.15,2013-09-10 00:13:00,
2013-09-09 20:19:00,84.0,72.7,29.90,SSW,205,3.0,5.0,69,0.00,,,0.00,Wunderground v.1.15,2013-09-10 00:19:00,
2013-09-09 20:25:00,83.6,72.8,29.90,South,176,3.0,5.0,70,0.00,,,0.00,Wunderground v.1.15,2013-09-10 00:25:00,
2013-09-09 20:31:00,83.2,72.8,29.90,South,190,4.0,5.0,71,0.00,,,0.00,Wunderground v.1.15,2013-09-10 00:31:00,
2013-09-09 20:37:00,82.9,72.5,29.90,South,189,3.0,5.0,71,0.00,,,0.00,Wunderground v.1.15,2013-09-10 00:37:00,
2013-09-09 20:43:00,82.8,72.8,29.90,WSW,243,4.0,5.0,72,0.00,,,0.00,Wunderground v.1.15,2013-09-10 00:43:00,
2013-09-09 20:49:00,82.7,72.7,29.91,SSE,160,4.0,5.0,72,0.00,,,0.00,Wunderground v.1.15,2013-09-10 00:49:00,
2013-09-09 20:55:00,82.5,72.6,29.91,SSW,198,4.0,5.0,72,0.00,,,0.00,Wunderground v.1.15,2013-09-10 00:55:00,
2013-09-09 21:01:00,82.4,72.9,29.91,SW,221,4.0,4.0,73,0.00,,,0.00,Wunderground v.1.15,2013-09-10 01:01:00,
2013-09-09 21:07:00,82.1,72.6,29.91,SSW,203,4.0,5.0,73,0.00,,,0.00,Wunderground v.1.15,2013-09-10 01:07:00,
2013-09-09 21:12:00,82.0,72.5,29.91,SSW,208,3.0,5.0,73,0.00,,,0.00,Wunderground v.1.15,2013-09-10 01:12:00,
2013-09-09 21:18:00,81.8,72.7,29.92,SSW,201,3.0,5.0,74,0.00,,,0.00,Wunderground v.1.15,2013-09-10 01:18:00,
2013-09-09 21:24:00,81.6,72.5,29.92,SSW,212,3.0,5.0,74,0.00,,,0.00,Wunderground v.1.15,2013-09-10 01:24:00,
2013-09-09 21:30:00,81.6,72.5,29.92,SSE,162,4.0,6.0,74,0.00,,,0.00,Wunderground v.1.15,2013-09-10 01:30:00,
2013-09-09 21:36:00,81.4,72.7,29.92,South,169,4.0,5.0,75,0.00,,,0.00,Wunderground v.1.15,2013-09-10 01:36:00,
2013-09-09 21:42:00,81.2,72.5,29.92,SSW,200,3.0,6.0,75,0.00,,,0.00,Wunderground v.1.15,2013-09-10 01:42:00,
2013-09-09 21:47:00,81.1,72.4,29.92,SW,217,4.0,6.0,75,0.00,,,0.00,Wunderground v.1.15,2013-09-10 01:47:00,
2013-09-09 21:53:00,81.0,72.7,29.92,SSW,197,4.0,5.0,76,0.00,,,0.00,Wunderground v.1.15,2013-09-10 01:53:00,
2013-09-09 21:59:00,80.8,72.5,29.92,South,186,4.0,5.0,76,0.00,,,0.00,Wunderground v.1.15,2013-09-10 01:59:00,
2013-09-09 22:05:00,80.6,72.7,29.92,SSW,211,3.0,5.0,77,0.00,,,0.00,Wunderground v.1.15,2013-09-10 02:05:00,
2013-09-09 22:11:00,80.4,72.5,29.92,SSW,212,3.0,5.0,77,0.00,,,0.00,Wunderground v.1.15,2013-09-10 02:11:00,
2013-09-09 22:17:00,80.2,72.3,29.92,SSW,204,3.0,5.0,77,0.00,,,0.00,Wunderground v.1.15,2013-09-10 02:17:00,
2013-09-09 22:22:00,80.1,72.6,29.92,SSE,156,3.0,5.0,78,0.00,,,0.00,Wunderground v.1.15,2013-09-10 02:22:00,
2013-09-09 22:28:00,79.9,72.4,29.92,SSE,160,3.0,5.0,78,0.00,,,0.00,Wunderground v.1.15,2013-09-10 02:28:00,
2013-09-09 22:33:00,79.8,72.7,29.92,SSW,203,4.0,5.0,79,0.00,,,0.00,Wunderground v.1.15,2013-09-10 02:33:00,
2013-09-09 22:39:00,79.7,72.6,29.93,South,169,4.0,5.0,79,0.00,,,0.00,Wunderground v.1.15,2013-09-10 02:39:00,
2013-09-09 22:45:00,79.5,72.8,29.93,SSE,148,3.0,5.0,80,0.00,,,0.00,Wunderground v.1.15,2013-09-10 02:45:00,
2013-09-09 22:51:00,79.4,72.7,29.93,SSW,201,4.0,5.0,80,0.00,,,0.00,Wunderground v.1.15,2013-09-10 02:51:00,
2013-09-09 22:57:00,79.3,73.0,29.93,SSW,208,4.0,5.0,81,0.00,,,0.00,Wunderground v.1.15,2013-09-10 02:57:00,
2013-09-09 23:03:00,79.2,72.9,29.93,SSW,205,3.0,5.0,81,0.00,,,0.00,Wunderground v.1.15,2013-09-10 03:03:00,
2013-09-09 23:09:00,79.1,72.8,29.93,South,184,3.0,5.0,81,0.00,,,0.00,Wunderground v.1.15,2013-09-10 03:09:00,
2013-09-09 23:15:00,79.0,72.7,29.93,SSW,204,4.0,6.0,81,0.00,,,0.00,Wunderground v.1.15,2013-09-10 03:15:00,
2013-09-09 23:21:00,78.9,72.9,29.93,SSW,197,4.0,5.0,82,0.00,,,0.00,Wunderground v.1.15,2013-09-10 03:21:00,
2013-09-09 23:26:00,78.8,72.8,29.93,South,184,4.0,5.0,82,0.00,,,0.00,Wunderground v.1.15,2013-09-10 03:26:00,
2013-09-09 23:32:00,78.7,72.7,29.93,South,181,4.0,5.0,82,0.00,,,0.00,Wunderground v.1.15,2013-09-10 03:32:00,
2013-09-09 23:37:00,78.6,72.6,29.93,SSW,194,4.0,6.0,82,0.00,,,0.00,Wunderground v.1.15,2013-09-10 03:37:00,
2013-09-09 23:43:00,78.6,73.0,29.94,SW,224,4.0,5.0,83,0.00,,,0.00,Wunderground v.1.15,2013-09-10 03:43:00,
2013-09-09 23:48:00,78.6,73.0,29.94,SSW,193,4.0,5.0,83,0.00,,,0.00,Wunderground v.1.15,2013-09-10 03:48:00,
2013-09-09 23:54:00,78.5,72.9,29.94,SSW,205,4.0,8.0,83,0.00,,,0.00,Wunderground v.1.15,2013-09-10 03:54:00,